Regional Weather Roundup
Issued by NWS

Home | Current Version | Previous Version | Text Only | Print | Product List | Glossary On
Versions: 1 2 3 4 5 6 7 8 9 10 11 12 13 14 15 16 17 18 19 20 21 22 23 24 25 26 27 28 29 30 31 32 33 34 35 36 37 38 39 40 41 42 43 44 45 46 47 48 49 50
000
ASUS45 KREV 302010
RWRNV
NEVADA REGIONAL WEATHER ROUNDUP
NATIONAL WEATHER SERVICE RENO NV
100 PM PDT SUN APR 30 2017

NOTE: "FAIR" INDICATES FEW OR NO CLOUDS BELOW 12,000 FEET WITH NO
SIGNIFICANT WEATHER AND/OR OBSTRUCTIONS TO VISIBILITY.

NVZ001-003-004-302100-
WESTERN NEVADA

CITY           SKY/WX    TMP DP  RH WIND       PRES   REMARKS
RENO           MOSUNNY   72  29  20 NE6       30.15F
CARSON CITY    FAIR      70  27  19 S6        30.17F
MINDEN         FAIR      68  30  24 W3        30.19F
FALLON         MOSUNNY   71  13  10 CALM      30.14F
LOVELOCK       PTSUNNY   69  22  16 S9        30.13F
HAWTHORNE      SUNNY     70  18  13 VRB7G14   30.15F
$$

NVZ002-CAZ072-073-302100-
NORTHERN AND CENTRAL SIERRA

CITY           SKY/WX    TMP DP  RH WIND       PRES   REMARKS
S. LAKE TAHOE  SUNNY     61  29  29 NE7       30.25F
TRUCKEE        MOSUNNY   64  30  27 SW16      30.23F
SQUAW VLY 8000   N/A     50  30  46 SW10        N/A
SUSANVILLE     CLOUDY    72  34  25 W10       30.17F
MAMMOTH LAKES  FAIR      68  16  14 E6        30.25F
$$

NVZ030-031-036-302100-
NORTHERN NEVADA

CITY           SKY/WX    TMP DP  RH WIND       PRES   REMARKS
ELKO           MOSUNNY   64  26  23 W16G26    30.14F
WINNEMUCCA     PTSUNNY   66  30  26 SW12G23   30.14F
WENDOVER       CLOUDY    61  24  24 SE6       30.11F
$$

NVZ035-037-302100-
CENTRAL NEVADA

CITY           SKY/WX    TMP DP  RH WIND       PRES   REMARKS
ELY            SUNNY     61  21  21 W12G24    30.15F
EUREKA           N/A     62  21  20 W10G18    30.16F
$$

NVZ013-014-302100-
SOUTH CENTRAL NEVADA

CITY           SKY/WX    TMP DP  RH WIND       PRES   REMARKS
TONOPAH        SUNNY     68  32  26 NW13      30.16F
$$

NVZ017-020-022-302100-
SOUTHERN NEVADA

CITY           SKY/WX    TMP DP  RH WIND       PRES   REMARKS
LAS VEGAS      MOSUNNY   76  10   8 E3        30.06F
N. LAS VEGAS   SUNNY     75  14  10 SE9       30.07F
NELLIS AFB     SUNNY     76  19  11 CALM      30.06F
HENDERSON      SUNNY     76  17  11 VRB5      30.10F
MERCURY        SUNNY     74  14  10 MISG      30.09F
$$



USA.gov is the U.S. government's official web portal to all federal, state and local government web resources and services.